TimeCST,TemperatureF,Dew PointF,Humidity,Sea Level PressureIn,VisibilityMPH,Wind Direction,Wind SpeedMPH,Gust SpeedMPH,PrecipitationIn,Events,Conditions,WindDirDegrees,DateUTC
12:15 AM,3.2,0.7,89,30.55,10.0,West,9.2,-,N/A,,Clear,280,2012-02-12 06:15:00
12:35 AM,3.2,0.3,88,30.55,10.0,West,8.1,-,N/A,,Clear,280,2012-02-12 06:35:00
12:55 AM,3.0,0.3,88,30.54,10.0,WNW,6.9,-,N/A,,Clear,290,2012-02-12 06:55:00
1:15 AM,2.3,-0.2,89,30.55,10.0,West,11.5,-,N/A,,Clear,260,2012-02-12 07:15:00
1:35 AM,3.2,0.3,88,30.55,10.0,West,11.5,-,N/A,,Clear,280,2012-02-12 07:35:00
1:55 AM,2.8,-0.0,88,30.55,10.0,West,11.5,-,N/A,,Clear,260,2012-02-12 07:55:00
2:15 AM,3.0,-0.0,87,30.56,10.0,West,13.8,-,N/A,,Clear,270,2012-02-12 08:15:00
2:35 AM,3.2,0.1,87,30.56,10.0,West,12.7,-,N/A,,Clear,270,2012-02-12 08:35:00
2:55 AM,3.6,0.5,87,30.55,10.0,West,10.4,-,N/A,,Clear,280,2012-02-12 08:55:00
3:15 AM,3.6,0.3,86,30.54,10.0,West,11.5,-,N/A,,Clear,280,2012-02-12 09:15:00
3:35 AM,2.8,-0.2,87,30.54,10.0,West,10.4,-,N/A,,Clear,280,2012-02-12 09:35:00
3:55 AM,1.9,-0.8,88,30.54,10.0,West,10.4,-,N/A,,Clear,280,2012-02-12 09:55:00
4:15 AM,2.7,-0.4,87,30.54,10.0,West,12.7,-,N/A,,Clear,270,2012-02-12 10:15:00
4:35 AM,1.2,-1.5,88,30.54,10.0,West,11.5,-,N/A,,Clear,260,2012-02-12 10:35:00
4:55 AM,1.6,-1.5,87,30.54,10.0,West,10.4,-,N/A,,Clear,280,2012-02-12 10:55:00
5:15 AM,0.3,-2.2,89,30.54,10.0,West,6.9,-,N/A,,Clear,260,2012-02-12 11:15:00
5:35 AM,0.3,-2.7,87,30.54,10.0,West,6.9,-,N/A,,Clear,270,2012-02-12 11:35:00
5:55 AM,0.9,-2.6,86,30.53,10.0,West,5.8,-,N/A,,Clear,280,2012-02-12 11:55:00
6:15 AM,0.5,-3.1,85,30.52,10.0,West,5.8,-,N/A,,Clear,260,2012-02-12 12:15:00
6:35 AM,-0.9,-4.4,85,30.51,10.0,WSW,4.6,-,N/A,,Clear,250,2012-02-12 12:35:00
6:55 AM,-1.3,-4.7,85,30.50,10.0,West,5.8,-,N/A,,Clear,270,2012-02-12 12:55:00
7:15 AM,-1.7,-5.3,85,30.50,10.0,West,5.8,-,N/A,,Clear,260,2012-02-12 13:15:00
7:35 AM,-2.2,-6.3,83,30.50,10.0,WSW,3.5,-,N/A,,Clear,250,2012-02-12 13:35:00
7:55 AM,-2.0,-5.6,85,30.50,10.0,SW,3.5,-,N/A,,Clear,220,2012-02-12 13:55:00
8:15 AM,-0.0,-3.8,84,30.49,10.0,Calm,Calm,-,N/A,,Clear,0,2012-02-12 14:15:00
8:35 AM,2.1,-1.5,85,30.49,10.0,Calm,Calm,-,N/A,,Clear,0,2012-02-12 14:35:00
8:55 AM,3.9,-0.6,82,30.48,10.0,Calm,Calm,-,N/A,,Clear,0,2012-02-12 14:55:00
9:15 AM,4.6,0.3,82,30.47,10.0,Calm,Calm,-,N/A,,Clear,0,2012-02-12 15:15:00
9:35 AM,5.9,1.6,82,30.47,10.0,South,3.5,-,N/A,,Clear,190,2012-02-12 15:35:00
9:55 AM,7.5,3.2,82,30.47,10.0,Calm,Calm,-,N/A,,Clear,0,2012-02-12 15:55:00
10:15 AM,9.9,4.6,79,30.46,10.0,SW,3.5,-,N/A,,Clear,220,2012-02-12 16:15:00
10:35 AM,11.5,6.3,80,30.46,10.0,SW,4.6,-,N/A,,Clear,220,2012-02-12 16:35:00
10:55 AM,12.9,7.7,80,30.46,10.0,SSW,3.5,-,N/A,,Clear,210,2012-02-12 16:55:00
11:15 AM,14.7,9.1,79,30.46,10.0,SW,3.5,-,N/A,,Clear,220,2012-02-12 17:15:00
11:35 AM,16.3,10.8,79,30.46,10.0,SW,3.5,-,N/A,,Clear,220,2012-02-12 17:35:00
11:55 AM,19.4,13.3,77,30.45,10.0,SSW,3.5,-,N/A,,Clear,210,2012-02-12 17:55:00
12:55 PM,21.9,14.0,72,30.41,10.0,WSW,9.2,-,N/A,,Clear,240,2012-02-12 18:55:00
1:15 PM,22.5,14.4,71,30.40,10.0,WSW,6.9,-,N/A,,Clear,240,2012-02-12 19:15:00
1:35 PM,23.2,14.5,70,30.38,10.0,SW,10.4,-,N/A,,Clear,230,2012-02-12 19:35:00
1:55 PM,23.2,13.6,67,30.37,10.0,SSW,8.1,-,N/A,,Clear,210,2012-02-12 19:55:00
2:15 PM,23.4,14.0,67,30.35,10.0,SSW,5.8,-,N/A,,Clear,200,2012-02-12 20:15:00
2:35 PM,23.9,13.6,65,30.34,10.0,SSW,8.1,-,N/A,,Clear,210,2012-02-12 20:35:00
2:55 PM,23.5,13.5,65,30.33,10.0,SSW,5.8,-,N/A,,Clear,210,2012-02-12 20:55:00
3:15 PM,23.7,14.2,67,30.33,10.0,South,8.1,-,N/A,,Clear,180,2012-02-12 21:15:00
3:35 PM,23.7,13.5,65,30.31,10.0,South,8.1,-,N/A,,Clear,180,2012-02-12 21:35:00
3:55 PM,23.5,14.7,69,30.31,10.0,South,6.9,-,N/A,,Clear,190,2012-02-12 21:55:00
4:15 PM,22.8,15.8,74,30.30,10.0,SSE,8.1,-,N/A,,Clear,160,2012-02-12 22:15:00
4:55 PM,21.0,15.6,80,30.28,10.0,South,5.8,-,N/A,,Clear,180,2012-02-12 22:55:00
5:15 PM,20.3,14.0,77,30.26,10.0,SSE,4.6,-,N/A,,Clear,160,2012-02-12 23:15:00
5:35 PM,19.4,12.2,74,30.26,10.0,SSE,5.8,-,N/A,,Clear,160,2012-02-12 23:35:00
5:55 PM,17.1,11.8,80,30.25,10.0,SSE,5.8,-,N/A,,Clear,150,2012-02-12 23:55:00
6:15 PM,17.6,11.7,78,30.24,10.0,SSE,5.8,-,N/A,,Clear,150,2012-02-13 00:15:00
6:55 PM,15.1,10.2,81,30.22,10.0,ESE,5.8,-,N/A,,Clear,120,2012-02-13 00:55:00
7:15 PM,14.4,9.5,81,30.22,10.0,ESE,5.8,-,N/A,,Clear,110,2012-02-13 01:15:00
7:35 PM,13.6,9.0,82,30.21,10.0,East,5.8,-,N/A,,Clear,100,2012-02-13 01:35:00
7:55 PM,13.3,8.6,82,30.20,10.0,ESE,6.9,-,N/A,,Clear,110,2012-02-13 01:55:00
8:15 PM,14.0,9.3,82,30.19,10.0,ESE,6.9,-,N/A,,Clear,120,2012-02-13 02:15:00
8:35 PM,13.8,10.2,86,30.18,10.0,SE,6.9,-,N/A,,Mostly Cloudy,130,2012-02-13 02:35:00
8:55 PM,16.5,11.8,82,30.17,10.0,SE,8.1,-,N/A,,Overcast,130,2012-02-13 02:55:00
9:15 PM,18.5,14.5,85,30.16,10.0,SE,5.8,-,N/A,,Overcast,130,2012-02-13 03:15:00
9:35 PM,20.7,15.1,79,30.15,10.0,SE,8.1,-,N/A,,Overcast,140,2012-02-13 03:35:00
9:55 PM,22.1,15.3,75,30.14,10.0,SE,8.1,-,N/A,,Overcast,140,2012-02-13 03:55:00
10:15 PM,22.5,15.6,75,30.14,10.0,SE,8.1,-,N/A,,Overcast,140,2012-02-13 04:15:00
10:35 PM,23.0,16.7,77,30.13,10.0,SSE,10.4,-,N/A,,Overcast,150,2012-02-13 04:35:00
10:55 PM,23.0,17.1,78,30.11,10.0,SE,9.2,-,N/A,,Overcast,140,2012-02-13 04:55:00
11:15 PM,23.5,17.8,79,30.10,10.0,SE,9.2,-,N/A,,Overcast,140,2012-02-13 05:15:00
11:35 PM,23.9,18.5,80,30.09,10.0,SSE,9.2,-,N/A,,Overcast,150,2012-02-13 05:35:00
11:55 PM,24.8,18.9,78,30.09,10.0,SSE,11.5,-,N/A,,Overcast,150,2012-02-13 05:55:00